STARLINK-2423, 47833

Orbit data source: Space-Track

STARLINK-2423, 47833 is a payload satellite owned by SpaceX/Seattle (US) in LEO that was launched on Thu, 11 Mar 2021 UTC via an FALCON 9 launch vehicle from the Air Force Eastern Test Range (AFETR). Payload-class satellites include a variety of spacecraft equipped with specific instruments for various scientific and technological missions. These include communications satellites like Starlink; space stations such as the ISS; scientific satellites like the Hubble; Earth observation satellites from companies like Planet Labs, Umbra, and HawkEye 360; GPS; miniature CubeSats for education and research; and military/defense satellites.

Loading next visibility...
Identifier
47833, 2021-018AY
Orbit
LEO
Country
Flag of USUS
Related business
Manufacturer
SpaceX/Seattle
Mission
Operational Commercial Communications
Bus & Motor
STARLINK, Unknown motor
Mass
260 kg wet, ~248 kg dry
Launch date (UTC)
2021-03-11 (5 years ago)
Launch vehicle
FALCON 9
Launch site
Air Force Eastern Test Range (AFETR)
Object type
Payload
Rocket body
Debris
Shape & HBR
Box + 1 Pan, 10.1 m
Radar Cross Section
13.562 m², Large (>1 m²)

Expand to show TLE details & history
Last TLE update: 2 days ago

TLE from 2 days ago
0 STARLINK-2423
1 47833U 21018AY  26171.33454272  .00000102  00000-0  15042-4 0  9993
2 47833  53.1599 138.7829 0001375  75.0050 285.1104 15.31701532292305
Epoch: 2026-06-20T08:01Z
TLE epoch observation values (Epoch: 2026-06-20T08:01:44.491Z)
Latitude
0.00004°
Longitude
109.7969°
Altitude
471.39 km
Speed
7.632 km/s
True Right ascension
09h 15m 07s
True Declination
0° 00' 00"
Sunlit
Object was in daylight at epoch
Visualization orbit readout
Latitude
Unknown
Longitude
Unknown
Altitude
Unknown
Speed
Unknown
Apparent Right ascension
Unknown
Apparent Declination
Unknown
Sunlit
N/A
Visualization observer readout
Local Sidereal Time
21:39:11
Azimuth
Unknown
Elevation
Unknown
Doppler factor
Unknown
Orbital elements
Apogee altitude
471.934 km
Perigee altitude
470.05 km
Semi-major axis
6,849.129 km
Eccentricity
0.00014
Inclination
53.1599°
RAAN
138.7829°
Arg. of periapsis
75.005°
True anomaly
285.09519°
Mean anomaly
285.1104°
Eccentric anomaly
285.10279°
Mean motion
3.82904 °/min
Orbital period
94.02 mins
BSTAR
0.000015042
Loading maneuver chart data...
Computing Atmospheric mass density...
Loading historical data...
Loading historical data...
Loading historical data...
Loading historical data...
Loading historical data...
Loading historical data...
Loading historical data...

Documentation

Showing up to 5 results
|